This demonstration page uses our WeatherBlox Daily Observations layout. Learn more.

Left ArrowRight Arrow

38.20091, -84.87328

Hourly Observations for July 9, 2015

Temp ( °F °C ) Dew Point ( °F °C ) Humidity (%) Winds ( mph kmh ) Pressure ( in mb ) Visibility ( mi km ) Precip ( " mm )
12:53 am 00:53 Clear 74 23.3 70 21.1 88 88 S 5 7 30.00 1016 10 16 0.00 0.00
1:53 am 01:53 Clear 74 23.3 70 21.1 88 88 SSW 7 11 29.99 1016 10 16 0.00 0.00
2:53 am 02:53 Clear 75 23.9 69 20.6 82 82 SSW 12 19 29.98 1015 10 16 0.00 0.00
3:53 am 03:53 Clear 75 23.9 69 20.6 82 82 SSW 12 19 29.96 1015 10 16 0.00 0.00
4:53 am 04:53 Clear 76 24.4 69 20.6 79 79 SSW 10 17 29.95 1014 10 16 0.00 0.00
5:53 am 05:53 Partly Cloudy 76 24.4 69 20.6 79 79 SSW 12 19 29.96 1015 10 16 0.00 0.00
6:53 am 06:53 Mostly Cloudy 75 23.9 70 21.1 84 84 SSW 9 15 29.98 1015 9 14 0.00 0.00
7:05 am 07:05 Mostly Cloudy 75 23.9 70 21.1 84 84 SSW 9 15 29.97 1015 9 14 0.00 0.00
7:42 am 07:42 Mostly Cloudy 75 23.9 70 21.1 84 84 S 16 26 29.97 1015 9 14 0.00 0.00
7:53 am 07:53 Cloudy with Rain 75 23.9 70 21.1 84 84 SSW 28 44 29.97 1015 4 6 0.01 0.25
8:00 am 08:00 Cloudy with Light Rain 75 23.9 70 21.1 84 84 SW 28 44 29.97 1015 7 11 0.00 0.03
8:53 am 08:53 Cloudy 73 22.8 69 20.6 87 87 SW 16 26 30.01 1016 10 16 0.02 0.51
9:35 am 09:35 Cloudy 74 23.3 70 21.1 88 88 SW 15 24 30.00 1016 10 16 0.00 0.00
9:53 am 09:53 Cloudy 74 23.3 69 20.6 85 85 SW 15 24 30.02 1017 9 14 0.00 0.00
10:15 am 10:15 Cloudy 75 23.9 70 21.1 84 84 SW 13 20 30.00 1016 10 16 0.00 0.00
10:53 am 10:53 Cloudy 75 23.9 69 20.6 82 82 WSW 10 17 30.03 1017 10 16 0.00 0.00
11:53 am 11:53 Cloudy 75 23.9 70 21.1 84 84 SW 15 24 30.04 1017 9 14 0.00 0.00
12:07 pm 12:07 Cloudy 75 23.9 70 21.1 84 84 SW 15 24 30.03 1017 8 13 0.00 0.00
12:22 pm 12:22 Cloudy 76 24.4 70 21.1 82 82 WSW 14 22 30.03 1017 8 13 0.00 0.00
12:53 pm 12:53 Cloudy 76 24.4 70 21.1 82 82 WSW 12 19 30.04 1017 9 14 0.00 0.00
1:53 pm 13:53 Mostly Cloudy 78 25.6 70 21.1 76 76 WSW 21 33 30.04 1017 10 16 0.00 0.00
2:31 pm 14:31 Cloudy with Light Rain 76 24.4 71 21.7 85 85 WSW 9 15 30.03 1017 8 13 0.01 0.25
2:53 pm 14:53 Cloudy 78 25.6 71 21.7 79 79 VRB 6 9 30.01 1016 9 14 0.01 0.25
3:18 pm 15:18 Cloudy 78 25.6 71 21.7 79 79 W 9 15 30.00 1016 10 16 0.00 0.00
3:53 pm 15:53 Partly Cloudy 80 26.7 71 21.7 74 74 WNW 12 19 30.01 1016 10 16 0.00 0.00
4:53 pm 16:53 Mostly Cloudy 81 27.2 70 21.1 69 69 W 12 19 30.01 1016 10 16 0.00 0.00
5:34 pm 17:34 Mostly Cloudy 81 27.2 70 21.1 69 69 W 9 15 30.00 1016 10 16 0.00 0.00
5:50 pm 17:50 Mostly Cloudy 81 27 72 22 74 74 W 9 15 30.00 1016 10 16 0.00 0.00
5:53 pm 17:53 Mostly Cloudy 81 27.2 70 21.1 69 69 W 8 13 30.01 1016 10 16 0.00 0.00
6:53 pm 18:53 Mostly Cloudy 81 27.2 70 21.1 69 69 W 9 15 30.01 1016 10 16 0.00 0.00
7:01 pm 19:01 Mostly Cloudy 81 27.2 70 21.1 69 69 WNW 6 9 30.00 1016 10 16 0.00 0.00
7:53 pm 19:53 Partly Cloudy 81 27.2 69 20.6 67 67 W 8 13 30.02 1017 9 14 0.00 0.00
8:53 pm 20:53 Mostly Cloudy 78 25.6 69 20.6 74 74 W 3 6 30.03 1017 8 13 0.00 0.00
9:53 pm 21:53 Mostly Cloudy 77 25 69 20.6 77 77 Calm 30.04 1017 9 14 0.00 0.00
10:53 pm 22:53 Mostly Cloudy 74 23.3 69 20.6 85 85 Calm 30.05 1018 9 14 0.00 0.00
11:53 pm 23:53 Mostly Cloudy 72 22.2 69 20.6 91 91 Calm 30.06 1018 8 13 0.00 0.00

Powered by AerisWeather